Starlink 31191

operational
NORAD ID: 58800 Int'l Des: 2024-012 Owner: SPXS Country: US Constellation: starlink
LEOCIRCULAR

Über Starlink 31191

Beschreibung wird geladen...

Live-Position

3D-Globus wird geladen...

Nächste Überflüge

Höhenverlauf

Altitude vs Time

uPlot chart will show altitude changes over time

Zweizeiliger Elementsatz

1 58800U 24012P 25304.90714611 -.00000051 00000-0 76593-5 0 9995
2 58800 43.0010 172.2570 0001466 257.3160 102.7528 15.27569495101545
Epoch: 31. Okt. 2025 • Age: 26 hours

Aktueller Status

Höhe 490.1 km
Geschwindigkeit 7.62 km/s
Subsatellitenpunkt -29.39°S, 16.44°W
Startdatum 15. Jan. 2024
Alter 1.7 years
Typ internet

Technische Details

Klassifizierung Payload
Masse 730.00 kg
Trockenmasse 700.00 kg
Gesamtmasse 730.00 kg
Länge 0.30 m
Durchmesser 4.10 m
Spannweite 29.00 m
Form Box + pan
Hersteller SPXS
Bus-Typ Starlink V2M
Phasenstatus In Orbit
Besitzer/Staat SPXS/US

Große Konstellationen

Loading constellations...